Hourly Weather Klaryny

Today, 27 July, Tuesday

Time Temperature Precipitation Wind Pressure Humidity
00:00 +20°C° 0.4 mm 2 mps 739 mmHg 80%
01:00 +19°C° 0.4 mm 3 mps 739 mmHg 86%
02:00 +19°C° 0.4 mm 2 mps 739 mmHg 87%
03:00 +20°C° 0.4 mm 1 mps 738 mmHg 88%
04:00 +20°C° 0.4 mm 1 mps 738 mmHg 89%
05:00 +21°C° 0.1 mm 1 mps 739 mmHg 86%
06:00 +21°C° 0.1 mm 2 mps 739 mmHg 82%
07:00 +23°C° 0.1 mm 2 mps 739 mmHg 79%
08:00 +25°C° 0 mm 3 mps 739 mmHg 73%
09:00 +26°C° 0 mm 3 mps 740 mmHg 66%
10:00 +28°C° 0 mm 3 mps 740 mmHg 59%
11:00 +29°C° 0 mm 3 mps 740 mmHg 55%
12:00 +29°C° 0 mm 3 mps 740 mmHg 50%
13:00 +30°C° 0 mm 3 mps 740 mmHg 45%
14:00 +30°C° 0 mm 3 mps 740 mmHg 44%
15:00 +30°C° 0 mm 3 mps 740 mmHg 42%
16:00 +30°C° 0 mm 3 mps 739 mmHg 41%
17:00 +29°C° 0 mm 3 mps 739 mmHg 47%
18:00 +27°C° 0 mm 2 mps 739 mmHg 53%
19:00 +26°C° 0 mm 1 mps 739 mmHg 60%
20:00 +25°C° 0 mm 1 mps 739 mmHg 60%
21:00 +24°C° 0 mm 1 mps 739 mmHg 61%
22:00 +23°C° 0 mm 1 mps 740 mmHg 62%
23:00 +23°C° 0 mm 1 mps 739 mmHg 64%

Tomorrow, 28 July, Wednesday

Time Temperature Precipitation Wind Pressure Humidity
00:00 +21°C° 0 mm 2 mps 739 mmHg 66%
01:00 +21°C° 0 mm 2 mps 739 mmHg 68%
02:00 +20°C° 0 mm 2 mps 739 mmHg 70%
03:00 +20°C° 0 mm 2 mps 739 mmHg 72%
04:00 +20°C° 0 mm 2 mps 738 mmHg 74%
05:00 +21°C° 0 mm 3 mps 738 mmHg 72%
06:00 +24°C° 0 mm 3 mps 738 mmHg 70%
07:00 +25°C° 0 mm 3 mps 738 mmHg 68%
08:00 +27°C° 0 mm 3 mps 738 mmHg 62%
09:00 +28°C° 0 mm 3 mps 738 mmHg 56%
10:00 +30°C° 0 mm 3 mps 738 mmHg 51%
11:00 +29°C° 0.9 mm 3 mps 738 mmHg 54%
12:00 +29°C° 0.9 mm 3 mps 738 mmHg 57%
13:00 +28°C° 0.9 mm 3 mps 737 mmHg 60%
14:00 +27°C° 1.1 mm 4 mps 737 mmHg 67%
15:00 +25°C° 1.1 mm 4 mps 738 mmHg 74%
16:00 +23°C° 1.1 mm 5 mps 738 mmHg 81%
17:00 +22°C° 0 mm 4 mps 738 mmHg 82%
18:00 +22°C° 0 mm 4 mps 738 mmHg 83%
19:00 +22°C° 0 mm 3 mps 739 mmHg 84%
20:00 +21°C° 0 mm 2 mps 739 mmHg 86%
21:00 +21°C° 0 mm 1 mps 739 mmHg 89%
22:00 +19°C° 0 mm 0 mps 739 mmHg 91%
23:00 +20°C° 0.4 mm 1 mps 739 mmHg 92%

Day after tomorrow, 29 July, Thursday

Time Temperature Precipitation Wind Pressure Humidity
00:00 +19°C° 0.4 mm 2 mps 739 mmHg 93%
01:00 +19°C° 0.4 mm 2 mps 739 mmHg 94%
02:00 +18°C° 0.2 mm 2 mps 739 mmHg 94%
03:00 +18°C° 0.2 mm 2 mps 739 mmHg 93%
04:00 +18°C° 0.2 mm 2 mps 739 mmHg 93%
05:00 +19°C° 0 mm 2 mps 740 mmHg 87%
06:00 +20°C° 0 mm 2 mps 740 mmHg 82%
07:00 +21°C° 0 mm 2 mps 740 mmHg 76%
08:00 +23°C° 0 mm 2 mps 740 mmHg 68%
09:00 +25°C° 0 mm 2 mps 740 mmHg 61%
10:00 +26°C° 0 mm 3 mps 740 mmHg 53%
11:00 +27°C° 0 mm 3 mps 740 mmHg 49%
12:00 +28°C° 0 mm 3 mps 739 mmHg 45%
13:00 +29°C° 0 mm 3 mps 739 mmHg 41%
14:00 +29°C° 0 mm 3 mps 739 mmHg 40%
15:00 +29°C° 0 mm 3 mps 739 mmHg 38%
16:00 +30°C° 0 mm 3 mps 738 mmHg 37%
17:00 +28°C° 0 mm 3 mps 738 mmHg 44%
18:00 +26°C° 0 mm 3 mps 738 mmHg 51%
19:00 +24°C° 0 mm 2 mps 738 mmHg 58%
20:00 +23°C° 0 mm 2 mps 738 mmHg 59%
21:00 +23°C° 0 mm 1 mps 738 mmHg 60%
22:00 +22°C° 0 mm 1 mps 738 mmHg 61%
23:00 +22°C° 0 mm 1 mps 738 mmHg 62%

30 July, Friday

Time Temperature Precipitation Wind Pressure Humidity
00:00 +21°C° 0 mm 1 mps 738 mmHg 63%
01:00 +20°C° 0 mm 2 mps 738 mmHg 63%
02:00 +20°C° 0.2 mm 2 mps 738 mmHg 68%
03:00 +19°C° 0.2 mm 2 mps 737 mmHg 73%
04:00 +19°C° 0.2 mm 2 mps 737 mmHg 78%
05:00 +20°C° 0.3 mm 2 mps 737 mmHg 77%
06:00 +22°C° 0.3 mm 1 mps 737 mmHg 76%
07:00 +23°C° 0.3 mm 1 mps 737 mmHg 74%
08:00 +24°C° 0 mm 1 mps 737 mmHg 70%
09:00 +25°C° 0 mm 2 mps 737 mmHg 65%
10:00 +26°C° 0 mm 2 mps 737 mmHg 61%
11:00 +26°C° 0.1 mm 2 mps 737 mmHg 59%
12:00 +27°C° 0.1 mm 3 mps 737 mmHg 57%
13:00 +27°C° 0.1 mm 3 mps 736 mmHg 56%
14:00 +28°C° 0 mm 3 mps 736 mmHg 54%
15:00 +28°C° 0 mm 3 mps 736 mmHg 53%
16:00 +28°C° 0 mm 3 mps 736 mmHg 52%
17:00 +26°C° 0 mm 3 mps 736 mmHg 55%
18:00 +25°C° 0 mm 3 mps 736 mmHg 58%
19:00 +24°C° 0 mm 3 mps 736 mmHg 61%
20:00 +22°C° 0 mm 3 mps 736 mmHg 61%
21:00 +20°C° 0 mm 3 mps 737 mmHg 60%
22:00 +19°C° 0 mm 2 mps 737 mmHg 60%
23:00 +19°C° 0 mm 2 mps 737 mmHg 61%

31 July, Saturday

Time Temperature Precipitation Wind Pressure Humidity
00:00 +18°C° 0 mm 2 mps 737 mmHg 63%
01:00 +17°C° 0 mm 2 mps 737 mmHg 64%
02:00 +17°C° 0 mm 2 mps 737 mmHg 65%
03:00 +17°C° 0 mm 2 mps 737 mmHg 65%
04:00 +17°C° 0 mm 2 mps 737 mmHg 66%
05:00 +18°C° 0 mm 2 mps 737 mmHg 63%
06:00 +19°C° 0 mm 2 mps 738 mmHg 61%
07:00 +20°C° 0 mm 2 mps 738 mmHg 59%
08:00 +21°C° 0 mm 2 mps 738 mmHg 54%
09:00 +24°C° 0 mm 3 mps 738 mmHg 49%
10:00 +25°C° 0 mm 3 mps 738 mmHg 44%
11:00 +26°C° 0 mm 3 mps 738 mmHg 42%
12:00 +27°C° 0 mm 3 mps 737 mmHg 39%
13:00 +28°C° 0 mm 3 mps 737 mmHg 37%
14:00 +28°C° 0 mm 3 mps 737 mmHg 37%
15:00 +28°C° 0 mm 3 mps 737 mmHg 36%
16:00 +28°C° 0 mm 3 mps 737 mmHg 36%
17:00 +27°C° 0 mm 3 mps 736 mmHg 42%
18:00 +25°C° 0 mm 2 mps 736 mmHg 48%
19:00 +24°C° 0 mm 1 mps 736 mmHg 54%
20:00 +23°C° 0 mm 1 mps 736 mmHg 55%
21:00 +22°C° 0 mm 1 mps 736 mmHg 56%
22:00 +21°C° 0 mm 1 mps 736 mmHg 57%
23:00 +20°C° 0 mm 2 mps 736 mmHg 58%

1 August, Sunday

Time Temperature Precipitation Wind Pressure Humidity
00:00 +20°C° 0 mm 2 mps 736 mmHg 59%
01:00 +20°C° 0 mm 2 mps 736 mmHg 60%
02:00 +19°C° 0 mm 2 mps 735 mmHg 62%
03:00 +19°C° 0 mm 2 mps 735 mmHg 65%
04:00 +19°C° 0 mm 2 mps 734 mmHg 67%
05:00 +20°C° 0 mm 3 mps 734 mmHg 69%
06:00 +20°C° 0 mm 3 mps 733 mmHg 70%
07:00 +21°C° 0 mm 3 mps 733 mmHg 72%
08:00 +22°C° 0.2 mm 3 mps 733 mmHg 71%
09:00 +24°C° 0.2 mm 3 mps 732 mmHg 69%
10:00 +25°C° 0.2 mm 3 mps 732 mmHg 68%
11:00 +26°C° 0 mm 4 mps 732 mmHg 64%
12:00 +27°C° 0 mm 5 mps 732 mmHg 60%
13:00 +28°C° 0 mm 6 mps 732 mmHg 55%
14:00 +27°C° 0.1 mm 7 mps 732 mmHg 59%
15:00 +26°C° 0.1 mm 7 mps 732 mmHg 62%
16:00 +24°C° 0.1 mm 7 mps 732 mmHg 66%
17:00 +22°C° 0.2 mm 6 mps 732 mmHg 72%
18:00 +19°C° 0.2 mm 6 mps 732 mmHg 79%
19:00 +16°C° 0.2 mm 5 mps 732 mmHg 85%
20:00 +16°C° 0 mm 5 mps 732 mmHg 85%
21:00 +17°C° 0 mm 4 mps 733 mmHg 86%
22:00 +15°C° 0 mm 4 mps 733 mmHg 87%
23:00 +15°C° 0.5 mm 4 mps 733 mmHg 89%
Show more